RH
18 19 19 19 20 19 19 18 18 17 16 15 15 14 14 14 13 13 13 12 13 12 12 12 11 11 11 11 11 10 10 9 9 9 8 8 8 7 7 6 6 6 7 8 10 10 10 10 9 9 8 9 10 9 9 8 8 9 11 12 14 15 15
21 21 21 20 19 18 16 15 14 13 12 11 11 10 10 10 9 9 9 8 9 8 8 8 8 8 8 7 8 7 7 6 6 5 5 5 5 5 5 5 4 4 5 6 7 7 7 7 7 7 7 7 9 9 8 7 7 7 8 10 12 14 15
22 20 18 16 15 13 12 11 10 9 9 8 8 8 7 7 7 7 7 6 6 6 6 6 6 6 6 6 6 5 5 5 4 4 4 4 4 4 4 4 4 4 4 5 6 6 6 6 5 6 6 6 6 7 7 6 6 5 6 6 8 10 12
18 15 14 12 11 11 10 10 9 8 8 7 6 6 6 6 5 5 5 5 5 5 4 4 4 4 4 4 4 4 4 4 3 3 3 3 4 4 4 4 4 4 4 4 5 5 6 6 5 6 6 6 6 6 6 6 6 5 5 5 5 6 7
15 14 13 12 12 11 9 8 7 6 5 5 4 4 4 4 3 3 3 3 3 3 3 3 3 3 3 3 3 3 3 2 2 2 2 3 3 3 3 3 3 3 3 3 4 4 4 4 5 5 5 5 6 6 7 7 6 6 6 6 6 5 5
16 14 13 11 9 8 6 5 5 4 4 3 3 3 3 3 3 2 2 3 2 2 2 2 2 2 2 2 2 2 2 2 2 2 2 2 2 2 2 2 2 2 2 2 3 3 3 3 3 4 4 4 4 4 5 6 6 6 6 6 6 6 6
14 11 9 7 6 5 4 4 4 3 3 3 3 3 3 2 3 2 2 2 2 2 2 2 2 2 2 2 2 2 2 2 2 2 2 2 2 2 2 2 2 2 2 2 2 2 2 2 2 3 3 3 3 3 4 4 4 5 5 5 5 5 6
9 7 6 5 4 4 4 3 3 3 3 3 3 3 3 2 2 2 2 2 2 2 2 2 2 2 2 2 2 2 2 2 2 2 2 2 2 2 2 2 2 2 2 2 2 2 2 2 2 2 2 2 2 3 3 3 3 4 4 4 4 4 5
6 5 5 4 4 4 3 3 3 3 3 3 3 3 2 2 3 2 2 2 2 2 2 2 2 2 2 2 2 2 2 2 2 2 2 2 2 2 2 2 2 2 2 2 2 2 2 2 2 2 2 2 2 2 2 2 3 3 3 3 3 4 4
5 5 5 4 4 4 3 3 3 3 3 3 3 3 2 3 2 2 2 2 2 2 2 2 2 2 2 2 2 2 2 2 2 2 2 2 2 2 2 2 2 2 2 2 2 2 2 2 2 2 2 2 2 2 2 2 2 2 2 3 3 3 3
5 5 4 4 4 4 4 4 3 3 3 3 3 2 2 3 2 2 2 2 2 2 2 2 2 2 2 2 2 2 2 2 2 2 2 2 2 2 2 2 2 2 2 2 2 2 2 2 2 2 2 2 2 2 2 2 2 2 2 2 2 2 2
5 5 5 4 4 4 4 4 3 3 3 3 3 2 2 2 2 2 2 2 2 2 2 2 2 2 2 2 2 2 2 2 2 2 2 2 2 2 2 2 2 2 2 2 2 2 2 2 2 2 2 2 2 2 2 2 2 2 2 2 2 3 2
5 5 5 5 4 4 4 4 3 3 3 3 3 2 2 2 2 2 2 2 2 2 2 2 2 2 2 2 2 2 2 2 2 2 2 2 2 2 2 2 2 2 2 2 2 2 2 2 2 2 2 2 2 2 2 2 2 2 2 2 2 3 3
6 5 5 5 5 4 4 4 3 3 3 3 3 3 2 3 2 2 2 2 2 2 2 2 2 2 2 2 2 2 2 2 2 2 2 2 2 2 2 2 2 1 2 2 2 2 2 2 2 2 2 2 2 2 2 2 3 2 2 2 2 2 3
6 6 5 5 5 4 4 4 4 4 4 3 3 3 3 3 3 2 2 2 2 2 2 2 2 2 2 2 2 2 2 2 2 2 2 2 2 2 2 2 2 1 2 2 2 2 2 2 2 2 2 2 2 2 2 2 2 2 2 2 2 2 2
6 6 5 5 5 5 4 4 4 4 4 4 3 3 3 3 3 3 2 2 2 2 2 3 2 2 2 2 2 2 2 2 2 2 2 2 2 2 2 2 2 2 2 2 2 2 2 2 2 2 2 2 2 2 2 3 2 2 2 2 2 3 2
6 6 6 5 5 5 5 5 4 4 4 4 4 3 3 3 3 3 3 3 3 3 2 3 3 2 3 2 2 2 2 2 2 2 2 2 2 2 2 2 2 2 2 2 2 2 2 2 2 2 2 2 2 2 2 3 3 2 2 2 2 2 2
6 6 6 6 6 5 5 5 4 4 4 4 4 4 4 4 3 3 3 3 3 3 3 3 3 3 3 3 2 3 2 2 3 2 2 2 2 2 2 2 2 2 2 2 2 2 2 2 2 2 2 2 2 2 2 2 3 2 2 3 3 3 3
7 7 6 6 6 6 6 5 5 5 5 5 5 4 4 4 4 3 3 3 3 3 3 3 3 3 3 3 3 3 3 3 3 3 3 3 2 2 2 2 2 2 2 2 2 2 2 2 2 2 2 2 2 2 2 2 2 2 3 3 3 3 3
7 7 7 7 6 6 6 6 6 6 6 6 5 5 5 5 4 4 4 4 4 4 4 4 4 3 3 3 3 3 3 3 3 3 3 3 3 2 2 2 2 2 2 2 2 2 2 2 2 2 2 2 2 2 2 2 2 2 2 3 3 3 3
7 7 7 7 7 7 7 7 7 7 7 7 7 6 6 6 5 5 5 5 4 4 4 4 4 4 4 3 3 3 3 3 3 3 3 3 3 3 2 3 3 2 3 2 2 2 2 2 2 2 2 2 2 2 2 2 2 2 2 2 3 3 3
8 8 8 8 8 9 8 8 8 8 8 8 8 8 7 7 6 6 5 5 5 5 5 5 5 4 4 4 4 4 4 4 3 3 4 3 3 3 3 3 3 2 3 3 2 2 2 2 2 2 2 2 2 2 2 2 2 2 2 2 3 2 3
10 10 10 9 9 10 10 10 10 10 10 9 9 8 8 8 7 7 6 6 6 5 6 6 5 5 5 4 4 4 4 4 4 4 4 4 3 3 3 3 3 3 3 3 3 3 2 2 3 3 3 3 2 2 2 2 2 2 2 3 2 2 3
12 12 12 12 11 12 12 13 12 12 12 11 11 10 9 8 8 8 7 7 7 6 6 6 5 6 5 5 5 5 4 4 4 4 4 4 4 4 4 3 3 3 3 3 3 3 3 3 3 3 3 3 3 3 2 2 2 2 2 3 2 3 3
15 15 15 15 14 14 14 14 14 14 14 13 13 12 12 11 10 9 8 8 8 8 8 7 6 6 6 5 5 5 5 5 5 5 4 4 4 4 4 4 3 3 3 3 3 3 3 3 3 3 3 3 3 3 3 3 3 2 2 3 2 2 3
17 17 16 16 15 15 14 15 15 15 15 15 15 14 14 15 14 13 11 10 9 9 9 9 9 8 7 6 5 5 5 5 5 5 5 5 5 5 4 4 4 4 3 3 3 3 3 3 3 3 3 3 3 3 3 3 3 3 2 2 2 2 3
16 16 16 16 16 15 14 14 15 16 15 15 15 14 14 15 15 15 15 13 12 11 11 11 11 10 9 9 8 7 7 6 5 5 5 5 5 5 5 5 4 4 4 3 3 3 3 3 3 3 3 3 3 3 3 3 3 3 3 3 2 2 2
19 19 19 18 17 18 18 16 16 17 17 17 17 16 14 14 15 15 15 14 13 12 12 11 11 10 10 10 9 8 8 7 7 7 6 6 6 5 5 5 5 5 4 4 4 3 3 3 3 3 3 3 3 3 3 4 4 3 3 3 3 3 2
26 26 27 26 24 23 24 25 23 22 21 21 21 20 18 17 16 16 17 16 15 14 13 12 11 10 10 10 10 9 8 8 8 7 7 7 7 6 6 5 5 5 5 4 4 4 3 3 3 3 3 3 3 3 3 3 4 4 4 3 3 3 3
37 35 34 34 32 29 28 30 32 31 29 27 26 25 23 21 19 19 19 19 18 16 15 14 13 11 10 10 10 9 9 8 8 7 7 7 7 7 7 6 6 5 5 5 5 4 4 4 3 3 3 3 3 3 3 3 3 3 4 4 4 3 3
45 43 41 42 43 40 36 34 35 35 35 34 32 30 28 25 22 21 20 20 19 18 17 15 15 13 12 11 10 9 9 9 8 8 7 7 7 7 7 7 7 6 5 5 5 4 4 4 4 4 4 3 3 3 3 3 3 3 3 4 4 4 4
44 46 47 48 49 47 42 38 36 36 37 37 36 35 33 29 25 23 22 21 20 20 18 17 15 14 13 12 11 10 9 9 9 8 8 7 7 6 7 7 7 7 6 5 5 4 4 4 4 4 4 4 4 4 3 3 4 3 3 4 3 3 4
38 42 45 45 44 42 40 37 36 36 36 35 35 35 33 31 27 23 21 21 20 20 19 18 16 15 13 12 11 10 10 9 9 9 8 8 7 6 6 7 7 7 7 7 6 5 5 4 4 4 4 4 4 4 4 4 4 4 4 4 3 4 4
32 35 38 41 42 42 39 36 34 33 32 31 31 31 31 30 28 25 22 20 19 19 19 19 18 16 15 13 11 10 10 9 9 9 9 8 8 7 6 6 6 7 7 7 6 6 5 5 4 4 4 4 4 4 4 4 4 4 4 4 4 4 4
42 39 38 40 42 42 40 35 32 31 30 29 28 29 30 30 30 29 26 23 21 19 19 19 18 17 16 15 13 11 10 9 9 9 9 9 8 8 7 6 6 6 7 7 7 6 6 5 5 4 4 4 4 4 4 4 4 4 4 4 4 4 4
54 49 43 38 37 37 37 34 32 31 31 30 29 29 30 31 31 31 30 27 25 22 21 19 18 17 16 15 14 12 11 9 9 8 8 9 9 8 8 7 6 6 6 6 7 7 6 6 6 5 5 4 4 4 4 4 5 5 5 5 5 4 4
Wind_Speed
142 142 142 142 143 144 145 146 147 149 150 151 152 153 154 155 156 157 158 159 160 161 162 162 163 163 164 164 165 165 165 165 164 162 161 160 159 158 156 153 150 147 146 148 150 152 152 152 153 151 148 147 147 146 143 139 137 138 139 142 144 147 148
139 140 141 142 143 144 145 146 146 147 148 149 150 150 151 152 152 153 153 154 155 156 157 157 158 159 160 161 162 162 162 162 161 159 158 157 156 155 154 153 151 148 147 148 149 150 150 150 151 151 149 148 149 149 146 142 138 136 136 137 140 143 145
140 141 142 142 143 143 144 144 144 145 145 145 145 145 145 145 146 145 146 146 147 147 148 149 150 151 152 154 155 156 156 155 154 152 150 150 150 150 150 149 148 146 145 145 145 146 147 147 147 148 147 146 147 148 147 144 141 138 136 135 136 138 141
141 141 141 141 141 140 140 140 140 140 139 139 138 138 137 137 137 137 137 137 137 138 138 139 140 142 143 145 146 147 147 146 145 143 141 141 142 143 144 143 142 141 140 139 139 140 142 143 143 144 143 142 143 144 144 143 141 139 138 136 134 135 137
139 139 139 138 138 137 137 136 136 135 133 133 132 131 130 129 129 129 129 129 129 129 130 131 132 134 135 136 137 137 137 137 136 134 133 133 134 135 136 136 135 135 133 132 132 133 134 136 137 138 138 138 138 138 139 138 138 137 136 135 133 133 133
137 137 137 137 136 135 134 132 131 129 128 127 126 125 124 123 123 122 122 122 122 123 123 124 126 127 128 129 129 129 129 129 128 128 127 126 127 127 128 128 128 128 127 126 125 126 127 128 129 131 132 132 132 132 133 133 134 134 133 132 131 131 130
136 136 135 133 132 130 128 126 125 123 121 120 119 118 117 116 116 116 115 115 116 116 117 118 119 120 120 121 121 121 122 122 122 122 122 121 121 121 121 122 122 123 122 121 121 120 120 121 122 124 125 126 125 125 126 127 128 129 130 129 129 128 127
133 131 129 128 126 124 122 120 118 117 115 114 113 112 111 110 110 109 109 109 110 111 111 112 112 112 112 113 113 114 115 115 116 116 116 116 116 115 115 115 117 117 117 117 117 116 115 115 117 118 119 120 120 120 120 120 122 123 124 125 125 125 125
127 125 124 122 120 118 117 115 113 112 110 109 107 106 105 105 104 104 104 104 105 105 106 106 106 106 106 106 106 107 108 108 109 110 111 111 110 109 109 109 110 111 112 113 113 112 112 111 112 113 114 115 116 116 115 115 117 118 119 121 121 121 121
122 120 119 117 116 114 112 111 109 107 106 104 103 101 101 100 100 99 99 99 99 100 100 101 101 101 101 101 101 102 102 103 105 105 105 105 104 104 104 104 105 106 107 108 108 108 108 107 108 109 110 111 112 112 112 112 112 113 114 116 118 118 117
117 116 114 113 112 110 109 108 106 105 103 102 100 98 97 96 96 95 95 94 94 95 96 96 96 96 96 96 96 97 97 99 100 101 100 100 99 100 100 101 101 102 102 103 103 103 103 103 104 105 106 107 108 109 108 108 109 110 110 112 114 115 114
113 112 111 110 109 107 106 105 104 102 101 99 97 95 94 93 92 91 91 90 90 91 91 92 92 92 92 92 92 93 93 95 96 96 96 96 96 96 96 97 98 98 99 99 98 99 99 100 100 100 101 102 103 104 104 105 106 107 108 109 110 112 112
110 109 108 107 106 105 103 102 101 99 98 96 95 93 91 90 89 88 87 87 87 87 87 87 88 88 88 88 88 88 89 90 91 91 92 92 92 93 93 94 95 96 96 95 95 95 96 96 95 96 97 98 98 99 100 102 103 104 106 106 106 108 109
107 106 105 104 103 101 99 98 97 96 95 93 92 90 88 87 85 84 83 83 83 84 83 83 83 84 84 84 84 84 85 86 86 87 88 89 89 89 90 91 92 92 92 92 92 92 92 92 92 93 94 95 95 96 97 98 99 101 102 102 103 104 106
103 102 101 100 99 97 96 95 94 93 92 90 88 87 85 83 82 80 80 80 80 80 79 79 79 80 81 81 80 80 80 81 81 82 84 85 85 86 87 88 88 88 88 88 89 89 90 90 90 91 91 92 92 93 94 95 96 98 98 99 100 101 102
98 97 97 95 95 94 92 91 90 89 88 86 85 83 82 80 78 77 76 76 76 76 75 75 76 76 77 77 77 77 77 77 77 79 80 81 82 83 84 84 83 83 84 85 85 86 87 89 90 90 89 89 89 90 91 92 94 95 95 96 97 98 99
93 92 92 91 91 90 88 87 86 85 84 82 81 79 78 77 75 73 73 72 72 73 72 72 72 72 73 73 74 74 74 74 74 76 77 78 79 79 79 79 79 79 80 81 81 82 83 85 87 88 88 87 87 87 88 90 91 92 93 94 95 95 96
90 89 88 87 86 86 85 83 82 81 80 78 77 76 75 74 72 71 70 70 69 69 69 69 69 69 69 70 71 71 71 71 72 73 75 76 76 76 76 76 76 77 77 76 77 78 79 81 83 84 85 86 86 85 85 86 88 90 91 91 93 93 94
86 85 84 83 82 81 80 79 78 77 76 75 74 73 72 71 69 68 68 68 67 66 66 66 65 66 66 67 68 69 69 69 70 71 72 73 74 74 74 74 74 74 73 73 74 75 76 77 78 80 82 83 84 83 83 84 85 87 88 89 90 91 92
82 81 79 79 78 76 76 75 74 73 72 71 71 70 69 68 67 66 65 65 65 65 64 63 63 63 63 64 65 66 66 67 67 68 70 71 71 72 72 72 72 72 71 71 71 72 73 74 75 76 78 80 81 81 81 81 82 83 85 86 87 89 90
78 76 75 74 73 73 72 71 70 69 68 67 67 67 66 65 64 64 63 63 63 63 63 62 61 60 61 61 62 63 63 64 65 66 67 68 69 70 70 70 70 69 69 69 70 70 70 71 72 73 75 77 79 79 79 79 80 81 82 83 84 86 87
73 72 71 69 69 68 68 67 67 66 65 64 64 63 63 63 62 62 61 61 60 60 60 60 60 59 59 60 60 60 61 62 63 64 65 66 67 68 68 68 68 67 67 67 68 68 68 69 69 71 73 75 76 77 77 77 77 78 79 80 82 83 84
69 68 67 66 65 64 64 65 64 63 63 63 62 61 61 60 60 60 60 60 59 59 58 57 57 58 58 59 59 59 59 59 60 61 62 64 65 66 67 67 67 66 65 65 65 66 66 67 67 69 71 72 74 75 76 76 76 76 77 78 79 80 82
65 64 63 63 62 61 60 61 61 60 60 60 60 60 59 59 58 58 58 58 59 59 58 57 56 56 56 56 57 58 58 58 59 60 60 61 62 63 64 65 65 65 64 64 63 64 64 65 65 67 69 70 71 73 74 74 74 74 75 76 76 77 79
61 60 59 58 59 58 57 57 57 57 57 57 57 56 56 57 57 57 57 57 57 57 57 57 57 56 56 55 55 56 57 58 58 59 59 60 61 62 62 63 63 64 63 63 62 62 63 63 63 65 67 68 69 70 71 72 72 73 73 74 75 76 77
56 56 55 55 55 55 54 54 54 54 53 53 53 53 52 52 53 55 55 56 55 55 55 56 56 56 57 57 56 56 56 57 57 58 58 59 59 60 61 62 62 62 62 62 61 61 61 61 62 63 65 66 67 68 69 69 71 72 72 73 74 75 75
53 53 53 52 52 53 53 52 51 52 52 52 51 51 50 49 49 50 52 53 54 53 53 53 53 53 54 56 57 57 57 58 58 58 58 58 58 59 59 60 61 61 61 61 60 60 60 60 61 61 62 64 65 66 67 67 69 70 71 72 73 74 74
52 52 52 52 51 51 52 52 51 51 51 52 52 52 51 49 48 48 50 51 52 52 51 51 51 51 51 53 55 55 56 57 58 58 59 59 59 59 59 58 59 59 60 61 60 60 59 59 60 60 61 62 63 64 64 66 67 68 69 70 71 73 73
50 49 50 51 51 50 49 51 51 51 51 51 52 53 53 51 50 49 50 52 53 53 52 52 52 51 50 51 53 54 54 55 56 57 57 58 58 59 60 59 58 57 58 59 60 60 59 59 59 60 60 61 61 62 63 64 65 66 67 68 69 71 72
47 47 47 48 50 50 48 47 48 50 50 50 51 52 53 53 52 51 51 52 54 54 54 53 54 53 51 51 52 53 53 54 55 56 56 56 56 57 59 60 60 58 57 57 58 59 59 58 58 59 59 60 60 61 62 62 63 64 65 66 67 69 71
43 44 44 44 46 49 49 47 45 46 48 48 49 51 53 54 54 53 53 53 54 55 55 55 55 55 53 52 52 52 52 53 54 55 56 56 55 55 56 57 59 59 58 57 57 57 57 57 57 58 58 59 59 60 60 61 62 63 63 64 65 67 68
39 41 42 41 41 43 46 47 45 45 45 46 47 49 51 54 55 55 54 54 55 56 57 57 56 56 55 54 54 53 53 53 53 54 55 55 55 54 54 54 56 58 59 58 57 57 56 56 56 57 57 58 58 59 59 60 60 61 62 63 64 65 66
35 37 39 41 42 42 44 45 45 45 45 45 46 48 49 52 54 55 54 54 54 56 57 59 59 58 57 56 55 54 53 53 53 54 54 55 55 54 53 53 53 55 56 58 58 57 56 55 55 55 56 56 57 58 59 58 59 60 61 61 62 63 64
39 37 38 40 43 45 46 46 45 46 46 46 47 48 50 52 55 57 57 56 56 56 58 60 61 61 61 60 59 56 54 53 53 53 53 54 54 54 53 52 52 52 54 55 57 57 57 56 55 54 54 55 55 56 57 57 58 59 59 60 61 61 62
46 43 41 40 41 45 48 49 48 48 49 49 49 50 52 54 56 59 60 61 61 60 61 62 62 63 63 63 63 61 58 56 54 53 53 53 53 53 53 52 51 51 51 52 55 56 57 57 56 55 54 54 54 54 54 55 56 57 58 59 59 60 60
45 46 46 45 43 44 48 51 52 52 53 54 54 54 55 56 57 59 61 62 63 63 64 64 64 64 65 65 64 64 62 60 57 55 54 53 53 53 53 52 51 50 50 50 52 54 55 56 56 55 54 54 53 52 52 52 53 55 57 58 59 59 59
Wind_Direction
280 280 280 280 280 279 279 278 278 277 277 276 276 275 275 275 274 274 274 274 274 274 274 274 274 274 273 273 273 273 273 273 273 273 273 273 273 273 273 273 273 272 271 270 270 269 269 270 270 270 269 269 268 267 265 264 262 261 261 261 261 261 261
284 283 283 282 282 281 280 280 279 278 278 277 277 276 276 276 275 275 275 274 274 274 274 274 273 273 273 273 273 273 273 273 273 273 273 273 273 273 273 273 273 273 272 271 270 270 269 269 269 269 269 268 268 268 267 266 264 262 261 260 260 261 261
286 285 284 284 283 282 282 281 280 280 279 278 278 278 277 277 277 276 276 275 275 275 274 274 273 273 273 272 272 272 272 272 273 273 273 273 273 273 273 273 272 272 271 271 270 269 269 269 268 268 268 267 267 267 267 266 265 264 262 261 260 260 260
286 286 285 285 284 284 283 282 282 281 281 280 280 279 279 279 278 278 277 276 276 275 275 274 274 273 273 272 272 272 272 273 273 273 273 273 273 272 272 272 271 271 271 270 269 268 268 268 268 267 267 267 266 266 266 266 265 265 263 262 261 260 259
288 287 287 286 286 285 285 284 284 283 283 283 282 282 281 280 280 279 278 278 277 276 275 275 274 274 273 273 273 273 273 274 274 273 273 272 272 271 271 271 271 270 270 269 268 267 267 267 266 266 266 266 265 265 265 265 265 264 264 263 261 260 259
289 289 288 288 287 287 286 286 285 285 285 284 283 283 282 281 281 280 279 278 278 277 276 275 274 274 274 274 274 274 274 274 274 274 273 272 271 271 271 271 270 270 270 269 268 267 266 266 266 266 265 265 265 264 264 264 264 264 263 263 262 261 259
290 290 289 289 288 288 287 287 286 286 285 285 284 283 283 282 281 281 280 279 278 277 276 275 275 274 274 274 274 274 274 274 274 273 273 272 272 271 271 271 270 270 269 269 268 267 266 266 265 265 265 265 264 264 263 263 263 262 262 262 261 261 260
291 291 290 290 289 289 289 288 288 287 286 286 285 284 284 283 282 281 281 280 279 278 277 276 276 275 275 275 274 274 274 273 273 273 273 272 271 271 271 270 270 270 269 269 268 267 266 266 265 265 265 264 264 263 263 262 262 261 261 261 261 260 259
292 292 291 291 291 290 290 289 289 288 288 287 287 286 285 285 284 283 282 281 280 280 279 278 278 277 276 276 275 274 274 273 273 272 272 272 271 271 270 270 269 269 268 268 268 267 266 266 265 264 264 264 264 263 262 262 261 260 260 260 260 259 259
293 293 293 293 292 292 292 291 291 290 290 289 289 288 287 286 285 284 283 282 282 281 280 279 279 278 277 277 276 275 274 274 273 272 272 272 271 271 270 269 268 268 268 267 267 266 266 265 264 264 263 263 263 262 262 261 261 260 260 260 259 259 258
295 295 295 294 294 294 294 294 293 293 292 291 290 290 289 288 287 286 285 284 284 282 281 280 280 279 278 277 276 276 275 274 274 273 273 272 271 271 270 269 268 267 267 267 266 266 265 265 264 263 263 262 262 262 262 261 261 260 259 259 259 259 258
296 296 296 296 296 296 296 295 295 294 294 293 292 292 291 290 289 288 288 286 285 284 283 282 281 280 279 278 277 276 275 275 274 274 274 273 272 271 270 269 269 268 267 266 266 265 265 264 263 263 262 262 261 261 261 261 260 260 259 258 258 258 258
298 297 297 297 297 297 296 296 296 295 295 295 294 293 293 292 291 290 289 288 287 285 284 283 282 281 280 278 277 276 276 275 275 274 274 273 272 272 271 270 269 268 267 267 266 265 265 264 264 263 262 262 261 261 260 260 259 259 258 258 257 257 257
298 298 297 297 297 297 297 297 297 297 296 296 295 295 294 293 292 291 290 289 288 286 285 284 283 282 281 280 279 277 277 276 275 274 273 273 272 271 270 270 269 268 268 268 267 266 265 265 264 263 262 262 261 260 259 259 259 258 258 258 257 257 256
298 298 298 298 298 298 298 298 297 297 297 297 296 296 295 294 293 292 291 290 289 287 286 285 284 283 282 281 280 279 278 277 276 275 274 273 272 271 269 269 269 269 269 268 267 266 266 265 263 262 261 261 260 260 259 259 258 258 258 257 257 256 256
298 298 299 299 298 298 298 298 298 298 298 297 297 297 296 295 295 294 292 291 290 289 288 287 286 285 284 283 282 281 279 278 277 276 275 273 272 271 270 270 269 269 268 267 266 266 265 265 264 263 261 260 260 259 259 259 258 258 258 257 256 256 255
299 299 299 299 299 299 299 299 299 298 298 298 298 298 297 297 296 295 294 293 291 290 289 288 287 286 285 284 283 282 281 280 278 277 276 275 273 272 271 271 270 268 267 267 266 266 265 265 264 264 263 261 260 259 258 258 258 258 257 257 257 256 256
299 299 299 299 299 299 299 299 299 299 299 299 299 299 298 298 297 296 295 294 292 291 291 289 288 287 286 285 284 283 282 281 280 279 278 276 275 274 273 272 270 269 268 267 266 266 265 264 264 264 263 262 260 259 258 257 257 257 257 257 256 256 256
300 300 300 300 300 300 300 300 300 300 300 300 300 300 299 299 298 297 296 295 294 292 291 291 289 288 287 286 285 284 283 282 281 280 279 278 277 276 275 273 272 271 270 268 267 266 265 264 264 264 263 263 262 260 258 257 256 256 256 256 256 256 256
300 300 300 300 300 301 301 301 301 301 301 301 301 300 300 300 299 298 297 296 295 294 292 291 290 289 288 287 286 285 284 283 282 281 280 279 278 277 276 275 274 273 271 270 268 267 266 265 264 263 263 263 262 261 260 258 257 256 255 255 255 255 255
300 301 301 301 301 301 301 301 301 301 301 301 301 301 301 300 299 299 298 296 296 295 294 292 291 290 288 287 286 285 285 284 283 282 281 280 279 278 277 275 274 274 273 271 269 268 267 266 265 264 263 263 262 261 260 259 258 256 255 255 254 254 254
301 301 301 302 302 302 302 302 302 302 301 301 301 301 301 301 300 299 298 297 296 295 294 294 293 291 290 288 287 285 285 284 283 282 281 281 280 279 278 277 275 274 273 272 270 269 268 266 265 264 264 263 263 262 261 259 258 257 256 255 255 254 254
302 302 302 302 302 302 302 302 302 302 302 302 302 302 301 301 301 300 300 298 297 296 295 294 293 292 291 290 288 287 285 284 283 283 282 281 281 280 279 278 276 275 273 272 271 270 268 267 265 264 264 263 263 262 262 260 259 258 257 256 255 255 254
302 303 303 303 303 303 303 303 303 303 303 303 303 304 303 303 303 302 301 301 300 299 298 296 295 293 292 291 290 289 288 286 285 283 282 282 281 281 280 279 278 277 275 273 271 270 269 267 266 265 264 263 263 263 262 262 260 259 257 256 255 255 254
302 302 302 302 302 302 302 302 302 303 303 304 304 305 305 305 305 304 303 303 302 301 301 300 298 297 295 292 291 290 289 288 286 285 284 283 282 281 280 280 279 278 277 275 273 271 269 268 266 265 265 264 263 263 262 262 261 260 259 257 256 255 254
300 300 300 300 301 301 301 302 302 303 303 304 304 305 306 306 306 306 305 304 303 303 302 301 301 300 299 297 295 293 291 289 287 286 285 284 283 283 282 281 280 279 278 276 275 273 271 269 267 265 265 264 264 263 262 262 261 261 259 258 257 255 254
300 301 301 301 302 302 302 303 304 305 305 306 306 305 305 306 306 306 306 305 304 303 303 302 301 300 300 298 297 296 295 293 291 289 287 286 284 283 282 282 281 280 279 278 276 274 273 271 269 266 265 264 264 263 263 262 261 261 260 259 258 257 255
305 305 305 305 306 307 307 307 308 308 309 310 310 309 309 308 309 309 308 307 306 305 304 303 302 301 300 298 297 296 296 294 293 292 291 290 288 286 284 282 281 281 280 279 278 276 274 272 271 269 267 265 264 263 263 262 262 261 260 260 259 259 257
308 309 309 310 310 311 312 313 313 313 313 313 314 314 313 313 313 314 314 313 311 310 309 308 306 305 303 302 300 298 297 295 293 292 291 291 290 290 288 286 284 282 280 280 279 278 276 274 272 270 269 267 265 264 262 261 261 261 261 260 260 259 259
309 310 311 311 312 312 313 315 316 316 316 316 316 316 316 316 316 317 317 317 316 314 314 313 311 309 308 306 303 301 300 298 296 294 292 291 290 290 289 289 287 285 283 280 279 278 277 276 274 272 270 269 267 265 264 262 261 260 260 260 259 259 259
307 309 311 313 314 314 314 314 315 316 317 318 319 319 318 318 318 318 319 319 318 317 316 315 314 313 312 310 307 305 303 300 298 296 295 293 291 290 289 288 288 287 286 283 281 279 278 276 275 273 272 270 269 267 265 264 263 261 260 259 259 259 259
306 309 311 312 312 312 312 313 314 316 317 318 319 319 319 318 317 318 319 319 319 319 318 317 317 316 314 313 311 309 307 304 301 299 297 295 293 291 289 288 287 287 286 285 283 281 279 277 276 274 273 271 270 269 267 265 264 263 261 260 259 258 258
305 307 309 309 310 310 310 312 314 315 316 316 317 317 317 317 316 316 317 318 319 320 320 319 319 318 317 316 314 312 310 307 305 302 300 298 295 293 291 288 287 286 285 285 284 283 281 279 277 275 273 271 270 269 268 267 266 264 263 261 260 259 258
309 309 310 313 314 314 313 314 315 315 315 316 317 317 318 318 318 318 318 319 320 321 321 321 321 320 320 318 317 315 312 310 307 305 303 300 298 295 293 290 287 285 284 283 283 283 282 281 279 276 274 272 270 269 268 268 267 266 265 263 261 260 259
317 316 315 316 317 316 316 316 317 318 319 319 320 320 320 320 320 320 320 320 320 321 321 321 321 321 320 319 318 316 315 312 310 307 305 303 300 298 295 292 289 286 284 282 282 282 281 281 280 278 276 274 272 270 269 268 267 267 266 265 263 261 259
319 319 318 318 319 320 320 321 322 323 323 323 323 323 322 321 320 320 320 319 319 320 320 320 320 320 320 319 318 317 315 314 312 310 307 305 303 300 297 294 291 288 285 283 281 280 280 280 279 279 278 276 274 272 270 269 268 266 265 265 264 262 260